Regional Weather Roundup
Issued by NWS

Home | Current Version | Previous Version | Text Only | Print | Product List | Glossary On
Versions: 1 2 3 4 5 6 7 8 9 10 11 12 13 14 15 16 17 18 19 20 21 22 23 24 25 26 27 28 29 30 31 32 33 34 35 36 37 38 39 40 41 42 43 44 45 46 47 48 49 50
000
ASUS43 KIND 030809
RWRIN

WEATHER ROUNDUP FOR INDIANA
NATIONAL WEATHER SERVICE INDIANAPOLIS IN
400 AM EDT TUE MAY 03 2016

NOTE: "FAIR" INDICATES FEW OR NO CLOUDS BELOW 12,000 FEET WITH NO
SIGNIFICANT WEATHER AND/OR OBSTRUCTIONS TO VISIBILITY.

* - STATION DOES NOT REPORT WEATHER SUCH AS PRECIPITATION OR FOG.

+ - STATION NOT QUALITY CONTROLLED BY THE NATIONAL WEATHER SERVICE.
    USE DATA WITH CAUTION...ESPECIALLY DEWPOINT AND RELATIVE
    HUMIDITY OBSERVATIONS.

INZ001>003-010>013-019-020-030900-
NORTHWEST INDIANA

CITY           SKY/WX    TMP DP  RH WIND       PRES   REMARKS
GARY /AIRPORT/ CLEAR     39  39 100 CALM      29.98F
KNOX *+        CLOUDY    45  41  87 CALM      29.96F
LA PORTE +     CLOUDY    47  45  92 NW3       29.97F
MICHIGAN CITY+ CLOUDY    41  41 100 CALM      29.98F
MONTICELLO +   CLOUDY    48  44  86 N3        29.95S
RENSSELAER +   CLOUDY    46  43  87 NW5       29.96F
VALPARAISO     CLOUDY    46  40  79 NW3       29.97F

$$

LMZ046-743>745-030900-
SOUTHERN LAKE MICHIGAN

STATION/POSITION TIME  TEMP    WIND        PRES    WAVE
                       AIR SEA DIR/SP/G            HT
                 (UTC) (F)     (DEG/KT/KT) (MB)    (FT)
BURNS HARBOR     0701   46     320/  3/  5 1015.9F
MICHIGAN CITY    0700   44     280/  5/  6   N/A

$$

INZ004-005-014>016-021>024-030900-
NORTH CENTRAL INDIANA

CITY           SKY/WX    TMP DP  RH WIND       PRES   REMARKS
GOSHEN         CLOUDY    48  46  93 N3        29.95F
LOGANSPORT +   DRIZZLE   48  48 100 N5        29.95F
PERU/GRISSOM   DRIZZLE   50  50 100 N5        29.93S
ROCHESTER +    MOCLDY    50  50 100 N3        29.95F
SOUTH BEND     CLOUDY    46  43  89 CALM      29.97F
WARSAW +       CLOUDY    46  46 100 N3        29.95S FOG

$$

INZ006>009-017-018-025>027-030900-
NORTHEAST INDIANA

CITY           SKY/WX    TMP DP  RH WIND       PRES   REMARKS
ANGOLA *+      CLOUDY    48  39  71 CALM      29.94F
AUBURN +       CLOUDY    46  45  93 CALM      29.95F FOG
FORT WAYNE     DRIZZLE   49  47  93 N5        29.95F FOG
HUNTINGTON +   CLOUDY   N/A N/A N/A NE3       29.94F HAZE

$$

INZ028-029-035-036-043>045-051>053-030900-
WEST CENTRAL INDIANA

CITY           SKY/WX    TMP DP  RH WIND       PRES   REMARKS
CRAWFORDSVL +  CLOUDY    48  48 100 N6        29.94F
GREENCASTLE +  CLOUDY    50  50 100 NW5       29.94S
LAFAYETTE      CLOUDY    48  45  89 N7        29.95F
TERRE HAUTE    CLOUDY    52  49  89 NW5       29.95S

$$

INZ030>032-037>040-046>048-054>057-064-065-030900-
CENTRAL INDIANA

CITY           SKY/WX    TMP DP  RH WIND       PRES   REMARKS
CP ATTERBURY + CLOUDY    52  50  93 NW3       29.92S
FISHERS *+     CLOUDY    50  50 100 N3        29.92F
FRANKFORT +    DRIZZLE   50  50 100 CALM      29.95F
GREENWOOD *+   CLOUDY    52  52 100 NW5       29.92F
INDIANAPOLIS   LGT RAIN  51  49  92 NW8       29.90F FOG
-EAGLE CREEK   CLOUDY    51  50  96 N7        29.91F FOG
KOKOMO *+      CLOUDY    50  46  87 NE7       29.94S
MARION +       CLOUDY    49  47  94 E6        29.94S FOG
SHELBYVILLE    LGT RAIN  54  51  90 N5        29.90S FOG
ZIONSVILLE +   CLOUDY    49  49  97 N7        29.93F

$$

INZ033-034-041-042-049-050-058-059-030900-
EAST CENTRAL INDIANA

CITY           SKY/WX    TMP DP  RH WIND       PRES   REMARKS
MUNCIE         CLOUDY    52  47  83 E7        29.92F

$$

INZ060-061-067>069-081>083-085>088-030900-
SOUTHWEST INDIANA

CITY           SKY/WX    TMP DP  RH WIND       PRES   REMARKS
EVANSVILLE     CLOUDY    54  49  83 NW5       29.96S
HUNTINGBURG *+ CLOUDY    52  46  82 NW5       29.94F
WASHINGTON +   CLOUDY    51  51 100 NW3       29.94F FOG

$$

INZ062-063-066-070>080-084-089>092-030900-
SOUTH CENTRAL AND SOUTHEAST INDIANA

CITY           SKY/WX    TMP DP  RH WIND       PRES   REMARKS
BEDFORD +      CLOUDY    50  50 100 CALM      29.92F FOG
BLOOMINGTON    CLOUDY    52  49  89 W6        29.92F
MADISON *+     CLOUDY    54  50  87 NW3       29.93S
NORTH VERNON + CLOUDY   N/A N/A N/A CALM      29.92S
SEYMOUR +      CLOUDY    54  50  87 CALM      29.91F

$$





USA.gov is the U.S. government's official web portal to all federal, state and local government web resources and services.